Home > Weather > Feldkirch > Past weeks

Flag for Austria Past Weather in Feldkirch, Vorarlberg, Austria — Yesterday and Last 2 Weeks

Now
61 °F

Cool.


Feels Like: 61 °F
Forecast: 60 / 83 °F
Wind: 1 mph from Northeast

Location: Feldkirch

Current Time: Aug 30, 2016 at 7:09:05 AM

Latest Report: Aug 30, 2016 at 6:00 AM


Visibility: N/A

Pressure: 30.15 "Hg

Humidity: 97%

Dew Point: 60 °F

Location of FeldkirchLocation

Past Weather in Feldkirch — Graph

°F

Feldkirch Temperature Yesterday

Maximum temperature yesterday: 72 °F (at 12:00 AM)
Minimum temperature yesterday: 62 °F (at 9:00 AM)
Average temperature yesterday: 66 °F

High & Low Weather Summary for the Past Weeks

 TemperatureHumidityPressure
High87 °F (Aug 28, 3:00 PM)98% (Aug 25, 7:00 AM)30.39 "Hg (Aug 25, 7:00 AM)
Low53 °F (Aug 23, 6:00 AM)48% (Aug 28, 4:00 PM)29.77 "Hg (Aug 18, 2:00 PM)
Average69 °F76%30.05 "Hg
* Reported Aug 15 6:00 AM — Aug 30 6:00 AM, Feldkirch, Weather by CustomWeather, © 2016

Note: Actual official high and low records may vary slightly from our data, if they occured in-between our weather recording intervals... More about our weather records

Advertising

Feldkirch Weather History for the Previous 24 Hours

Scroll right to see more
 ConditionsComfort  
Time TempWeatherWind HumidityBarometerVisibility
6:00 AM
Tue, Aug 30
61 °FCool.1 mph97%30.15 "HgN/A
5:00 AM63 °FMild.1 mph96%30.14 "HgN/A
4:00 AM63 °FMild.No wind95%30.16 "HgN/A
3:00 AM63 °FMild.1 mph96%30.16 "HgN/A
2:00 AM63 °FMild.No wind97%30.17 "HgN/A
1:00 AM63 °FMild.No wind97%30.18 "HgN/A
12:00 AM64 °FMild.1 mph94%30.17 "HgN/A
11:00 PM
Mon, Aug 29
64 °FFog.1 mph90%30.16 "HgN/A
10:00 PM65 °FMild.1 mph92%30.14 "HgN/A
9:00 PM65 °FMild.1 mph92%30.13 "HgN/A
8:00 PM67 °FMild.No wind92%30.10 "HgN/A
7:00 PM68 °FMild.1 mph90%30.09 "HgN/A
5:00 PM68 °FMild.1 mph84%30.09 "HgN/A
4:00 PM69 °FMild.No wind90%30.09 "HgN/A
3:00 PM66 °FMild.No wind92%30.12 "HgN/A
2:00 PM66 °FMild.1 mph92%30.12 "HgN/A
1:00 PM64 °FMild.1 mph93%30.13 "HgN/A
12:00 PM63 °FMild.2 mph96%30.14 "HgN/A
11:00 AM64 °FRain. Low clouds.1 mph96%30.13 "Hg6 mi
10:00 AM63 °FSprinkles. Cloudy.1 mph95%30.13 "HgN/A
9:00 AM62 °FMild.3 mph95%30.10 "HgN/A
8:00 AM67 °FMild.1 mph93%30.06 "HgN/A
7:00 AM65 °FOvercast.1 mph95%30.06 "Hg9 mi
Weather by CustomWeather, © 2016

See weather overviewHow to use our weather pages